Hourly Data

Hourly Data Report for April 13, 2009

All times are specified in Local Standard Time (LST). Add 1 hour to adjust for Daylight Saving Time where and when it is observed.

Metadata including Station Name, Province, Latitude, Longitude, Elevation, Climate ID, WMO ID, TC ID
HALIFAX STANFIELD INT'L A
NOVA SCOTIA
Latitude: 44°52'48.060" N Longitude: 63°30'00.050" W Elevation: 145.40 m
Climate ID: 8202250 WMO ID: 71395 TC ID: YHZ
Hourly Data Report for April 13, 2009
Temp Definition
°C

Dew Point Temp Definition
°C

Rel Hum Definition
%

Wind Dir Definition
10's deg
Wind Spd Definition
km/h

Visibility Definition
km

Stn Press Definition
kPa

Hmdx Definition

Wind Chill Definition

Weather Definition

TIME
00:00 0.1 -0.5 96 25 19 3.2 98.14 Snow Showers
01:00 0.1 -0.2 98 24 15 3.2 98.16 Snow Showers
02:00 0.0 -0.2 99 23 19 3.2 98.15 -5 Snow Showers
03:00 -0.1 -0.3 99 24 17 4.8 98.12 -5 Snow Showers
04:00 -0.1 -0.2 99 23 22 6.4 98.12 -6 Snow Showers
05:00 0.0 -0.2 99 22 24 4.0 98.11 -6 Snow Showers
06:00 0.0 -0.1 99 22 26 4.0 98.12 -6 Snow Showers
07:00 0.2 0.0 99 21 24 4.0 98.11 Snow Showers
08:00 0.9 0.2 95 23 28 12.9 98.09 Snow Showers
09:00 0.5 -0.6 92 27 22 3.2 98.08 Snow Showers
10:00 3.0 0.9 86 24 26 19.3 98.11 Snow Showers
11:00 1.9 0.1 88 27 15 19.3 98.16 Snow Showers
12:00 4.0 -1.6 67 27 30 19.3 98.19 Snow Showers
13:00 2.8 0.8 87 29 22 12.9 98.28 Snow Grains
14:00 1.5 -0.7 85 27 19 16.1 98.33 Snow Pellets
15:00 3.7 -1.8 67 27 26 16.1 98.36 Snow Pellets
16:00 3.1 -1.4 72 27 24 16.1 98.44 Mostly Cloudy
17:00 3.0 -1.8 71 27 20 24.1 98.52 Snow Showers
18:00 1.7 -1.6 79 27 20 24.1 98.60 Mostly Cloudy
19:00 0.3 -1.1 90 28 22 24.1 98.68 Cloudy
20:00 0.1 -1.5 89 29 19 24.1 98.82 Mostly Cloudy
21:00 -0.1 -1.2 92 26 9 24.1 98.92 -3 Snow Showers
22:00 -0.2 -1.4 92 27 15 24.1 98.96 -5 Snow Showers
23:00 0.2 -2.0 85 28 15 24.1 98.99 Snow Showers

Notes on Data Quality.

Legend
  • M = Missing
  • E = Estimated
  • NA = Not Available
  • ‡ = Partner data that is not subject to review by the National Climate Archives